Flag for Vatican City State Weather past 2 weeks in Vatican City, Vatican City State

Now
63 °F

Clear.


Feels Like: 63 °F
Forecast: 64 / 83 °F
Wind: 3 mph from Northeast

Location: Rome / Ciampino

Current Time: Sep 2, 2014 at 5:03:24 AM

Latest Report: Sep 2, 2014 at 4:15 AM


Visibility: 10 mi

Pressure: 29.62 "Hg

Humidity: 83%

Dew point: 57 °F

Location of Vatican CityLocation

Historic Weather in Vatican City — Graph

°F

Vatican City temperature yesterday

Maximum temperature yesterday: 73 °F (at 2:45 AM)
Minimum temperature yesterday: 63 °F (at 10:15 AM)
Average temperature yesterday: 67 °F

Past Weeks' High & Low Weather Summary

 TemperatureHumidityPressure
High88 °F (Aug 21, 1:45 PM)100% (Sep 1, 10:45 AM)30.04 "Hg (Sep 1, 10:45 AM)
Low63 °F (Sep 1, 10:15 AM)25% (Aug 19, 3:45 PM)29.56 "Hg (Sep 1, 12:15 PM)
Average76 °F67%29.93 "Hg
* Reported Aug 18 3:15 AM — Sep 2 3:45 AM, Vatican City, Weather by CustomWeather, © 2014

Note: Actual official high and low records may vary slightly from our data, if they occured in-between our weather recording intervals... More about our weather records

Advertising

Vatican City weather history for previous 24 hours

 ConditionsComfort  
Time TempWeatherWind HumidityBarometerVisibility
3:45 AM
Sep 2
63 °FClear.3 mph77%29.59 "Hg10 mi
3:15 AM63 °FClear.3 mph83%29.59 "Hg10 mi
2:45 AM63 °FPassing clouds.7 mph83%29.59 "HgN/A
2:15 AM64 °FPassing clouds.5 mph78%29.59 "HgN/A
1:15 AM63 °FPassing clouds.12 mph77%29.59 "HgN/A
12:45 AM63 °FPassing clouds.7 mph83%29.59 "HgN/A
12:15 AM63 °FPassing clouds.7 mph83%29.59 "HgN/A
11:45 PM
Sep 1
63 °FPassing clouds.8 mph83%29.62 "HgN/A
11:15 PM63 °FPassing clouds.9 mph83%29.62 "HgN/A
10:15 PM63 °FPassing clouds.9 mph77%29.62 "HgN/A
9:45 PM63 °FPassing clouds.12 mph77%29.59 "HgN/A
9:15 PM63 °FPassing clouds.18 mph77%29.59 "HgN/A
8:45 PM64 °FPassing clouds.13 mph73%29.59 "HgN/A
8:15 PM63 °FScattered clouds.9 mph73%29.59 "HgN/A
7:45 PM63 °FScattered clouds.10 mph73%29.59 "HgN/A
7:15 PM63 °FScattered clouds.13 mph73%29.59 "HgN/A
6:45 PM63 °FScattered clouds.12 mph77%29.59 "HgN/A
6:15 PM63 °FPartly sunny.18 mph77%29.59 "HgN/A
5:45 PM64 °FLight rain. Partly sunny.22 mph68%29.59 "HgN/A
5:15 PM64 °FLight rain. Partly sunny.13 mph78%29.59 "HgN/A
4:45 PM63 °FLight rain. Scattered clouds.17 mph73%29.59 "HgN/A
4:15 PM70 °FScattered clouds.22 mph53%29.59 "HgN/A
3:45 PM68 °FScattered clouds.25 mph56%29.59 "HgN/A
3:15 PM68 °FScattered clouds.25 mph56%29.59 "HgN/A
2:45 PM68 °FPartly sunny.18 mph56%29.56 "HgN/A
2:15 PM68 °FPartly sunny.21 mph56%29.59 "HgN/A
1:45 PM66 °FPartly sunny.16 mph73%29.56 "HgN/A
1:15 PM66 °FScattered clouds.13 mph78%29.56 "HgN/A
12:45 PM66 °FThunderstorms. Scattered clouds.14 mph78%29.56 "HgN/A
12:15 PM63 °FThunderstorms. Scattered clouds.6 mph83%29.56 "HgN/A
11:45 AM63 °FThunderstorms. Scattered clouds.8 mph83%29.59 "HgN/A
11:15 AM64 °FScattered clouds.8 mph73%29.59 "HgN/A
10:45 AM63 °FLight rain. Scattered clouds.7 mph100%29.62 "HgN/A
10:15 AM63 °FLight rain. Broken clouds.8 mph88%29.62 "Hg4 mi
9:45 AM64 °FScattered clouds.23 mph78%29.62 "Hg4 mi
9:15 AM72 °FScattered clouds.15 mph78%29.59 "Hg4 mi
8:45 AM73 °FRain showers. Fog.12 mph83%29.62 "Hg2 mi
8:15 AM73 °FScattered clouds.8 mph69%29.62 "HgN/A
7:45 AM72 °FScattered clouds.8 mph78%29.65 "HgN/A
7:15 AM70 °FPassing clouds.8 mph83%29.65 "HgN/A
6:45 AM70 °FPassing clouds.9 mph83%29.65 "HgN/A
6:15 AM70 °FPassing clouds.5 mph83%29.68 "HgN/A
5:45 AM72 °FPassing clouds.5 mph88%29.68 "HgN/A
5:15 AM73 °FPassing clouds.6 mph89%29.71 "HgN/A
Weather by CustomWeather, © 2014

See weather overviewHow to use our weather pages